Time,TemperatureF,DewpointF,PressureIn,WindDirection,WindDirectionDegrees,WindSpeedMPH,WindSpeedGustMPH,Humidity,HourlyPrecipIn,Conditions,Clouds,dailyrainin,SoftwareType,DateUTC
2013-01-28 01:00:00,29.0,27.0,30.21,SSE,160,9.0,-999.0,95,-99.99,,,-99.99,,2013-01-28 06:00:00,
2013-01-28 01:21:00,29.0,27.0,30.21,SSE,160,9.0,-999.0,95,-99.99,,,-99.99,,2013-01-28 06:21:00,
2013-01-28 01:31:00,29.0,27.0,30.21,SSE,160,9.0,-999.0,95,-99.99,,,-99.99,,2013-01-28 06:31:00,
2013-01-28 01:41:00,29.0,27.0,30.21,SSE,160,9.0,-999.0,95,-99.99,,,-99.99,,2013-01-28 06:41:00,
2013-01-28 01:52:00,29.0,27.0,30.21,SSE,160,9.0,-999.0,95,-99.99,,,-99.99,,2013-01-28 06:52:00,
2013-01-28 07:00:00,33.0,33.0,29.98,SSE,160,7.0,-999.0,97,-99.99,,,-99.99,,2013-01-28 12:00:00,
2013-01-28 07:22:00,33.0,33.0,29.98,SSE,160,7.0,-999.0,97,-99.99,,,-99.99,,2013-01-28 12:22:00,
2013-01-28 07:32:00,33.0,33.0,29.98,SSE,160,7.0,-999.0,97,-99.99,,,-99.99,,2013-01-28 12:32:00,
2013-01-28 07:41:00,33.0,33.0,29.98,SSE,160,7.0,-999.0,97,-99.99,,,-99.99,,2013-01-28 12:41:00,
2013-01-28 07:52:00,33.0,33.0,29.98,SSE,160,7.0,-999.0,97,-99.99,,,-99.99,,2013-01-28 12:52:00,
2013-01-28 09:00:00,35.0,35.0,29.93,South,170,15.0,-999.0,98,-99.99,,,-99.99,,2013-01-28 14:00:00,
2013-01-28 09:21:00,35.0,35.0,29.93,South,170,15.0,-999.0,98,-99.99,,,-99.99,,2013-01-28 14:21:00,
2013-01-28 09:32:00,35.0,35.0,29.93,South,170,15.0,-999.0,98,-99.99,,,-99.99,,2013-01-28 14:32:00,
2013-01-28 09:42:00,35.0,35.0,29.93,South,170,15.0,-999.0,98,-99.99,,,-99.99,,2013-01-28 14:42:00,
2013-01-28 09:52:00,35.0,35.0,29.93,South,170,15.0,-999.0,98,-99.99,,,-99.99,,2013-01-28 14:52:00,
2013-01-28 10:00:00,35.0,35.0,29.92,SSE,160,10.0,-999.0,99,-99.99,,,-99.99,,2013-01-28 15:00:00,
2013-01-28 10:22:00,35.0,35.0,29.92,SSE,160,10.0,-999.0,99,-99.99,,,-99.99,,2013-01-28 15:22:00,
2013-01-28 10:32:00,35.0,35.0,29.92,SSE,160,10.0,-999.0,99,-99.99,,,-99.99,,2013-01-28 15:32:00,
2013-01-28 10:42:00,35.0,35.0,29.92,SSE,160,10.0,-999.0,99,-99.99,,,-99.99,,2013-01-28 15:42:00,
2013-01-28 10:52:00,35.0,35.0,29.92,SSE,160,10.0,-999.0,99,-99.99,,,-99.99,,2013-01-28 15:52:00,
2013-01-28 11:00:00,38.0,37.0,29.90,SSW,200,9.0,-999.0,98,-99.99,,,-99.99,,2013-01-28 16:00:00,
2013-01-28 11:21:00,38.0,37.0,29.90,SSW,200,9.0,-999.0,98,-99.99,,,-99.99,,2013-01-28 16:21:00,
2013-01-28 11:31:00,38.0,37.0,29.90,SSW,200,9.0,-999.0,98,-99.99,,,-99.99,,2013-01-28 16:31:00,
2013-01-28 11:42:00,38.0,37.0,29.90,SSW,200,9.0,-999.0,98,-99.99,,,-99.99,,2013-01-28 16:42:00,
2013-01-28 11:52:00,38.0,37.0,29.90,SSW,200,9.0,-999.0,98,-99.99,,,-99.99,,2013-01-28 16:52:00,
2013-01-28 12:00:00,38.0,38.0,29.90,SSW,200,15.0,-999.0,99,-99.99,,,-99.99,,2013-01-28 17:00:00,
2013-01-28 12:22:00,38.0,38.0,29.90,SSW,200,15.0,-999.0,99,-99.99,,,-99.99,,2013-01-28 17:22:00,
2013-01-28 12:31:00,38.0,38.0,29.90,SSW,200,15.0,-999.0,99,-99.99,,,-99.99,,2013-01-28 17:31:00,
2013-01-28 12:41:00,38.0,38.0,29.90,SSW,200,15.0,-999.0,99,-99.99,,,-99.99,,2013-01-28 17:41:00,
2013-01-28 12:52:00,38.0,38.0,29.90,SSW,200,15.0,-999.0,99,-99.99,,,-99.99,,2013-01-28 17:52:00,
2013-01-28 13:00:00,43.0,41.0,29.88,SSW,200,17.0,-999.0,92,-99.99,,,-99.99,,2013-01-28 18:00:00,
2013-01-28 13:22:00,43.0,41.0,29.88,SSW,200,17.0,-999.0,92,-99.99,,,-99.99,,2013-01-28 18:22:00,
2013-01-28 13:33:00,43.0,41.0,29.88,SSW,200,17.0,-999.0,92,-99.99,,,-99.99,,2013-01-28 18:33:00,
2013-01-28 13:41:00,43.0,41.0,29.88,SSW,200,17.0,-999.0,92,-99.99,,,-99.99,,2013-01-28 18:41:00,
2013-01-28 13:51:00,43.0,41.0,29.88,SSW,200,17.0,-999.0,92,-99.99,,,-99.99,,2013-01-28 18:51:00,
2013-01-28 14:00:00,42.0,42.0,29.87,SSW,210,14.0,-999.0,99,-99.99,,,-99.99,,2013-01-28 19:00:00,
2013-01-28 14:21:00,42.0,42.0,29.87,SSW,210,14.0,-999.0,99,-99.99,,,-99.99,,2013-01-28 19:21:00,
2013-01-28 14:31:00,42.0,42.0,29.87,SSW,210,14.0,-999.0,99,-99.99,,,-99.99,,2013-01-28 19:31:00,
2013-01-28 14:41:00,42.0,42.0,29.87,SSW,210,14.0,-999.0,99,-99.99,,,-99.99,,2013-01-28 19:41:00,
2013-01-28 14:51:00,42.0,42.0,29.87,SSW,210,14.0,-999.0,99,-99.99,,,-99.99,,2013-01-28 19:51:00,
2013-01-28 15:00:00,46.0,42.0,29.85,SW,220,3.0,-999.0,87,-99.99,,,-99.99,,2013-01-28 20:00:00,
2013-01-28 15:21:00,46.0,42.0,29.85,SW,220,3.0,-999.0,87,-99.99,,,-99.99,,2013-01-28 20:21:00,
2013-01-28 15:32:00,46.0,42.0,29.85,SW,220,3.0,-999.0,87,-99.99,,,-99.99,,2013-01-28 20:32:00,
2013-01-28 15:42:00,46.0,42.0,29.85,SW,220,3.0,-999.0,87,-99.99,,,-99.99,,2013-01-28 20:42:00,
2013-01-28 15:52:00,46.0,42.0,29.85,SW,220,3.0,-999.0,87,-99.99,,,-99.99,,2013-01-28 20:52:00,
2013-01-28 16:00:00,43.0,43.0,-100.00,SSW,210,9.0,-999.0,99,-99.99,,,-99.99,,2013-01-28 21:00:00,
2013-01-28 16:21:00,43.0,43.0,-100.00,SSW,210,9.0,-999.0,99,-99.99,,,-99.99,,2013-01-28 21:21:00,
2013-01-28 16:32:00,43.0,43.0,-100.00,SSW,210,9.0,-999.0,99,-99.99,,,-99.99,,2013-01-28 21:32:00,
2013-01-28 16:42:00,43.0,43.0,-100.00,SSW,210,9.0,-999.0,99,-99.99,,,-99.99,,2013-01-28 21:42:00,
2013-01-28 16:52:00,43.0,43.0,-100.00,SSW,210,9.0,-999.0,99,-99.99,,,-99.99,,2013-01-28 21:52:00,
2013-01-28 17:00:00,43.0,43.0,29.90,SSW,210,7.0,-999.0,99,-99.99,,,-99.99,,2013-01-28 22:00:00,
2013-01-28 17:22:00,43.0,43.0,29.90,SSW,210,7.0,-999.0,99,-99.99,,,-99.99,,2013-01-28 22:22:00,
2013-01-28 17:31:00,43.0,43.0,29.90,SSW,210,7.0,-999.0,99,-99.99,,,-99.99,,2013-01-28 22:31:00,
2013-01-28 17:42:00,43.0,43.0,29.90,SSW,210,7.0,-999.0,99,-99.99,,,-99.99,,2013-01-28 22:42:00,
2013-01-28 17:52:00,43.0,43.0,29.90,SSW,210,7.0,-999.0,99,-99.99,,,-99.99,,2013-01-28 22:52:00,
2013-01-28 18:00:00,43.0,41.0,29.93,West,270,8.0,-999.0,92,-99.99,,,-99.99,,2013-01-28 23:00:00,
2013-01-28 18:21:00,43.0,41.0,29.93,West,270,8.0,-999.0,92,-99.99,,,-99.99,,2013-01-28 23:21:00,
2013-01-28 18:31:00,43.0,41.0,29.93,West,270,8.0,-999.0,92,-99.99,,,-99.99,,2013-01-28 23:31:00,
2013-01-28 18:41:00,43.0,41.0,29.93,West,270,8.0,-999.0,92,-99.99,,,-99.99,,2013-01-28 23:41:00,
2013-01-28 18:52:00,43.0,41.0,29.93,West,270,8.0,-999.0,92,-99.99,,,-99.99,,2013-01-28 23:52:00,
2013-01-28 19:00:00,42.0,39.0,29.96,West,270,7.0,-999.0,91,-99.99,,,-99.99,,2013-01-29 00:00:00,
2013-01-28 19:21:00,42.0,39.0,29.96,West,270,7.0,-999.0,91,-99.99,,,-99.99,,2013-01-29 00:21:00,
2013-01-28 19:32:00,42.0,39.0,29.96,West,270,7.0,-999.0,91,-99.99,,,-99.99,,2013-01-29 00:32:00,
2013-01-28 19:41:00,42.0,39.0,29.96,West,270,7.0,-999.0,91,-99.99,,,-99.99,,2013-01-29 00:41:00,
2013-01-28 19:51:00,42.0,39.0,29.96,West,270,7.0,-999.0,91,-99.99,,,-99.99,,2013-01-29 00:51:00,
2013-01-28 20:00:00,40.0,38.0,29.99,West,270,9.0,-999.0,92,-99.99,,,-99.99,,2013-01-29 01:00:00,
2013-01-28 20:22:00,40.0,38.0,29.99,West,270,9.0,-999.0,92,-99.99,,,-99.99,,2013-01-29 01:22:00,
2013-01-28 20:31:00,40.0,38.0,29.99,West,270,9.0,-999.0,92,-99.99,,,-99.99,,2013-01-29 01:31:00,
2013-01-28 20:41:00,40.0,38.0,29.99,West,270,9.0,-999.0,92,-99.99,,,-99.99,,2013-01-29 01:41:00,
2013-01-28 20:52:00,40.0,38.0,29.99,West,270,9.0,-999.0,92,-99.99,,,-99.99,,2013-01-29 01:52:00,
2013-01-28 21:00:00,39.0,38.0,30.01,WNW,290,7.0,-999.0,93,-99.99,,,-99.99,,2013-01-29 02:00:00,
2013-01-28 21:21:00,39.0,38.0,30.01,WNW,290,7.0,-999.0,93,-99.99,,,-99.99,,2013-01-29 02:21:00,
2013-01-28 21:32:00,39.0,38.0,30.01,WNW,290,7.0,-999.0,93,-99.99,,,-99.99,,2013-01-29 02:32:00,
2013-01-28 21:41:00,39.0,38.0,30.01,WNW,290,7.0,-999.0,93,-99.99,,,-99.99,,2013-01-29 02:41:00,
2013-01-28 21:52:00,39.0,38.0,30.01,WNW,290,7.0,-999.0,93,-99.99,,,-99.99,,2013-01-29 02:52:00,
2013-01-28 22:00:00,38.0,37.0,30.02,West,270,6.0,-999.0,95,-99.99,,,-99.99,,2013-01-29 03:00:00,
2013-01-28 22:21:00,38.0,37.0,30.02,West,270,6.0,-999.0,95,-99.99,,,-99.99,,2013-01-29 03:21:00,
2013-01-28 22:31:00,38.0,37.0,30.02,West,270,6.0,-999.0,95,-99.99,,,-99.99,,2013-01-29 03:31:00,
2013-01-28 22:41:00,38.0,37.0,30.02,West,270,6.0,-999.0,95,-99.99,,,-99.99,,2013-01-29 03:41:00,
2013-01-28 22:52:00,38.0,37.0,30.02,West,270,6.0,-999.0,95,-99.99,,,-99.99,,2013-01-29 03:52:00,
2013-01-28 23:21:00,38.0,36.0,30.04,North,0,0.0,-999.0,91,-99.99,,,-99.99,,2013-01-29 04:21:00,
2013-01-28 23:31:00,38.0,36.0,30.04,North,0,0.0,-999.0,91,-99.99,,,-99.99,,2013-01-29 04:31:00,
2013-01-28 23:41:00,38.0,36.0,30.04,North,0,0.0,-999.0,91,-99.99,,,-99.99,,2013-01-29 04:41:00,
2013-01-28 23:51:00,38.0,36.0,30.04,North,0,0.0,-999.0,91,-99.99,,,-99.99,,2013-01-29 04:51:00,